This demonstration page uses our WeatherBlox Daily Observations layout. Learn more.

38.89511, -77.03637

Hourly Observations for February 18, 2015

Temp ( °F °C ) Dew Point ( °F °C ) Humidity (%) Winds ( mph kmh ) Pressure ( in mb ) Visibility ( mi km ) Precip ( " mm )
12:52 am 00:52 Mostly Cloudy 19 -7 12 -11 73 73 Calm 30 1016 10 16.09344 0 0
1:52 am 01:52 Partly Cloudy 18 -8 12 -11 79 79 Calm 30 1016 8 12.874752 0 0
2:52 am 02:52 Partly Cloudy 18 -8 12 -11 79 79 Calm 29.97 1015 8 12.874752 0 0
3:31 am 03:31 Partly Cloudy with Fog 12 -11 9 -13 85 85 Calm 29.97 1015 10 16.09344 0 0
3:47 am 03:47 Partly Cloudy with Fog 14 -10 10 -12 85 85 Calm 29.97 1015 10 16.09344 0 0
3:52 am 03:52 Partly Cloudy with Fog 14 -10 10 -12 85 85 Calm 29.97 1015 10 16.09344 0 0
4:52 am 04:52 Mostly Cloudy 16 -9 10 -12 79 79 NNE 3 6 29.97 1015 10 16.09344 0 0
5:52 am 05:52 Mostly Cloudy 18 -8 9 -13 68 68 NE 5 7 29.97 1015 10 16.09344 0 0
6:52 am 06:52 Partly Cloudy 18 -8 9 -13 68 68 E 5 7 29.97 1015 10 16.09344 0 0
7:52 am 07:52 Partly Cloudy 19 -7 12 -11 73 73 S 3 6 29.97 1015 8 12.874752 0 0
8:52 am 08:52 Mostly Sunny 19 -7 10 -12 68 68 S 6 9 29.94 1014 10 16.09344 0 0
9:52 am 09:52 Mostly Sunny 25 -4 10 -12 54 54 S 6 9 29.94 1014 10 16.09344 0 0
10:52 am 10:52 Partly Cloudy 28 -2 9 -13 43 43 S 5 7 29.91 1013 10 16.09344 0 0
11:16 am 11:16 Mostly Cloudy 28 -2 9 -13 43 43 S 3 6 29.91 1013 10 16.09344 0 0
11:52 am 11:52 Mostly Cloudy 28 -2 9 -13 43 43 SW 9 15 29.88 1012 10 16.09344 0 0
12:52 pm 12:52 Partly Cloudy 30 -1 10 -12 43 43 S 7 11 29.8 1009 10 16.09344 0 0
1:52 pm 13:52 Partly Cloudy 34 1 10 -12 38 38 S 12 19 29.77 1008 10 16.09344 0 0
2:31 pm 14:31 Mostly Cloudy 34 1 10 -12 38 38 S 12 19 29.74 1007 10 16.09344 0 0
2:52 pm 14:52 Cloudy 34 1 10 -12 38 38 S 13 20 29.74 1007 10 16.09344 0 0
3:52 pm 15:52 Mostly Cloudy 34 1 10 -12 38 38 S 9 15 29.74 1007 10 16.09344 0 0
4:52 pm 16:52 Mostly Cloudy 34 1 12 -11 41 41 S 12 19 29.74 1007 10 16.09344 0 0
5:52 pm 17:52 Cloudy 34 1 12 -11 41 41 SW 9 15 29.74 1007 10 16.09344 0 0
6:28 pm 18:28 Windy with Snow Likely 34 1 14 -10 44 44 NW 21 33 29.77 1008 7 11.265408 0 0
6:34 pm 18:34 Cloudy with Light Snow 32 0 21 -6 64 64 WNW 13 20 29.8 1009 2.5 4.02336 0 0
6:37 pm 18:37 Cloudy with Light Snow 32 0 23 -5 69 69 NW 15 24 29.8 1009 1.5 2.414016 0.001 0.001
6:52 pm 18:52 Cloudy with Light Snow 30 -1 23 -5 75 75 WNW 7 11 29.8 1009 1.75 2.816352 0.001 0.001
6:55 pm 18:55 Cloudy with Light Snow 30 -1 23 -5 75 75 WNW 8 13 29.8 1009 2 3.218688 0.001 0.001
6:58 pm 18:58 Cloudy with Light Snow 30 -1 23 -5 75 75 WNW 6 9 29.8 1009 3 4.828032 0 0
7:03 pm 19:03 Cloudy 30 -1 23 -5 75 75 WNW 7 11 29.8 1009 8 12.874752 0 0
7:08 pm 19:08 Cloudy 30 -1 21 -6 69 69 WNW 7 11 29.8 1009 9 14.484096 0 0
7:37 pm 19:37 Windy with Snow Likely 30 -1 14 -10 51 51 NW 28 44 29.8 1009 5 8.04672 0.001 0.001
7:52 pm 19:52 Cloudy 28 -2 10 -12 47 47 NW 21 33 29.83 1010 8 12.874752 0.001 0.001
8:52 pm 20:52 Partly Cloudy 27 -3 7 -14 43 43 WNW 14 22 29.88 1012 10 16.09344 0 0
9:52 pm 21:52 Partly Cloudy 27 -3 3 -16 36 36 WNW 16 26 29.91 1013 10 16.09344 0 0
10:52 pm 22:52 Partly Cloudy 23 -5 0 -18 36 36 NW 14 22 29.94 1014 10 16.09344 0 0
11:52 pm 23:52 Mostly Clear 21 -6 -6 -21 30 30 WNW 14 22 29.97 1015 10 16.09344 0 0

Powered by AerisWeather